Total_Precipitation_Accumulation
1.93 2.04 2.10 2.11 2.25 2.34 2.34 2.25 2.38 2.51 2.70 2.68 2.67 2.66 2.53 2.45 2.56 2.71 2.55 2.77 2.80 2.85 2.79 2.82 2.87 3.09 3.20 3.11 3.17 3.23 3.51 3.84 3.72 3.40 3.07 2.84 2.76 2.74 2.59 2.53 2.42 2.30 2.11
1.84 1.87 2.04 2.18 2.22 2.20 2.15 2.19 2.23 2.25 2.33 2.35 2.33 2.33 2.35 2.53 2.68 2.60 2.55 2.61 2.66 2.57 2.62 2.77 2.63 2.83 3.02 2.94 3.07 3.09 3.28 3.65 3.80 3.89 3.74 3.40 3.16 3.00 2.93 2.70 2.26 2.06 2.11
1.95 2.00 2.17 2.13 2.04 2.07 2.29 2.40 2.33 2.29 2.31 2.27 2.26 2.24 2.25 2.47 2.64 2.56 2.58 2.66 2.65 2.49 2.59 2.61 2.46 2.63 2.70 2.80 2.87 2.93 3.14 3.39 3.73 3.66 3.62 3.54 3.38 3.11 3.22 2.87 2.54 2.47 2.03
2.04 2.17 2.29 2.18 2.16 2.24 2.36 2.47 2.44 2.35 2.37 2.46 2.49 2.39 2.39 2.29 2.28 2.44 2.59 2.58 2.54 2.43 2.45 2.39 2.28 2.31 2.41 2.64 2.67 2.81 3.04 3.28 3.49 3.43 3.44 3.55 3.64 3.63 3.63 3.31 3.08 2.84 2.44
2.07 2.19 2.27 2.32 2.34 2.41 2.41 2.48 2.46 2.35 2.35 2.60 2.62 2.57 2.53 2.31 2.11 2.25 2.40 2.31 2.35 2.31 2.27 2.12 1.94 2.03 2.19 2.27 2.15 2.53 2.90 3.04 3.10 3.16 3.23 3.43 3.59 3.84 3.62 3.46 3.35 3.29 2.97
1.93 2.07 2.14 2.28 2.43 2.46 2.44 2.48 2.46 2.48 2.52 2.56 2.49 2.46 2.35 1.99 2.05 2.02 1.99 2.06 2.14 2.16 2.19 2.17 2.03 1.94 1.90 1.92 1.87 2.05 2.39 2.56 2.77 3.07 3.18 3.36 3.46 3.47 3.63 3.60 3.55 3.41 3.11
1.85 1.98 2.09 2.23 2.35 2.37 2.32 2.45 2.55 2.51 2.43 2.31 2.26 2.28 2.21 2.12 1.97 1.71 1.65 1.81 2.02 2.11 2.15 2.19 1.92 1.76 1.84 1.70 1.76 1.81 1.86 1.96 2.15 2.57 2.86 2.95 3.04 3.07 3.36 3.42 3.43 3.30 3.19
1.87 2.00 2.09 2.24 2.28 2.31 2.32 2.27 2.28 2.29 2.28 2.26 2.12 2.12 2.21 2.10 2.03 1.76 1.64 1.61 1.82 1.86 1.85 1.90 1.96 1.93 1.83 1.88 1.85 1.80 1.67 1.70 1.83 1.83 1.99 2.23 2.52 2.80 3.00 3.17 3.47 3.42 3.34
1.86 2.04 2.18 2.26 2.26 2.27 2.29 2.22 2.24 2.25 2.19 2.20 2.17 2.19 2.19 2.12 2.07 1.85 1.80 1.72 1.80 1.78 1.80 1.85 1.96 2.01 2.07 1.97 1.89 1.90 1.86 1.82 1.76 1.73 1.65 1.74 1.93 2.09 2.29 2.60 2.98 3.30 3.47
1.93 2.06 2.15 2.22 2.31 2.25 2.34 2.43 2.42 2.34 2.28 2.31 2.30 2.25 2.12 2.07 1.96 1.77 1.77 1.73 1.92 2.02 2.10 2.09 2.01 1.88 1.90 1.82 1.76 1.85 1.82 1.79 1.70 1.65 1.58 1.53 1.51 1.66 1.88 2.11 2.45 2.85 3.10
1.98 2.10 2.19 2.27 2.35 2.32 2.39 2.46 2.48 2.44 2.47 2.37 2.21 2.19 2.17 2.04 1.83 1.54 1.49 1.48 1.74 2.01 2.05 1.97 1.85 1.69 1.54 1.50 1.47 1.57 1.69 1.66 1.67 1.71 1.75 1.72 1.73 1.74 1.79 1.90 2.24 2.54 2.68
2.10 2.10 2.21 2.35 2.18 2.16 2.42 2.51 2.55 2.57 2.52 2.40 2.27 2.15 2.15 2.08 1.80 1.59 1.51 1.48 1.63 1.90 2.10 2.05 1.91 1.72 1.51 1.42 1.26 1.33 1.42 1.38 1.45 1.65 1.72 1.73 1.74 1.76 1.85 1.98 2.20 2.40 2.58
2.15 2.20 2.25 2.30 2.39 2.44 2.48 2.56 2.54 2.47 2.42 2.37 2.32 2.20 2.18 2.22 2.15 1.85 1.68 1.66 1.75 1.79 1.93 2.10 1.98 1.67 1.42 1.32 1.28 1.21 1.11 1.12 1.31 1.45 1.51 1.60 1.67 1.78 1.92 2.09 2.32 2.48 2.52
2.30 2.41 2.41 2.36 2.41 2.57 2.70 2.66 2.56 2.41 2.44 2.47 2.35 2.32 2.33 2.36 2.23 1.99 1.81 1.71 1.74 1.72 1.73 1.76 1.73 1.58 1.40 1.37 1.39 1.26 1.13 1.21 1.30 1.34 1.43 1.54 1.63 1.72 1.85 1.95 2.15 2.39 2.53
2.57 2.58 2.60 2.59 2.63 2.70 2.67 2.61 2.59 2.52 2.47 2.50 2.45 2.42 2.40 2.31 2.17 2.05 1.90 1.84 1.81 1.77 1.70 1.71 1.66 1.65 1.50 1.44 1.52 1.53 1.50 1.54 1.50 1.43 1.47 1.51 1.56 1.61 1.68 1.79 1.95 2.09 2.23
2.88 2.74 2.76 2.82 2.84 2.77 2.78 2.60 2.44 2.33 2.25 2.13 2.16 2.16 2.04 2.00 1.94 1.83 1.81 1.82 1.80 1.82 1.70 1.71 1.82 1.80 1.75 1.76 1.78 1.75 1.72 1.66 1.65 1.69 1.68 1.61 1.61 1.63 1.62 1.69 1.82 1.94 2.00
3.02 2.98 2.87 2.82 2.78 2.75 2.82 2.86 2.76 2.55 2.42 2.23 2.08 1.99 1.92 1.87 1.78 1.69 1.71 1.80 1.85 1.86 1.73 1.81 1.96 1.97 1.94 1.94 1.85 1.80 1.83 1.78 1.77 1.78 1.76 1.76 1.78 1.80 1.80 1.84 1.93 2.04 2.03
2.84 2.84 2.79 2.77 2.72 2.73 2.86 2.93 2.88 2.81 2.71 2.49 2.24 2.09 1.90 1.72 1.63 1.63 1.72 1.72 1.67 1.65 1.69 1.89 2.09 2.10 2.10 2.07 1.97 1.87 1.87 1.85 1.80 1.78 1.79 1.78 1.83 1.91 1.95 1.95 1.95 2.01 2.01
2.75 2.73 2.68 2.67 2.77 2.88 2.92 2.99 2.92 2.87 2.82 2.68 2.43 2.23 2.06 1.78 1.63 1.61 1.62 1.55 1.65 1.78 1.85 1.97 2.03 2.05 2.07 2.00 1.90 1.85 1.88 1.85 1.80 1.84 1.85 1.86 1.87 1.96 1.98 1.96 1.95 2.02 1.95
2.80 2.84 2.80 2.67 2.64 2.74 2.86 2.83 2.85 2.84 2.74 2.65 2.55 2.35 2.12 1.93 1.78 1.74 1.65 1.64 1.74 1.80 1.83 1.85 1.84 1.84 1.87 1.91 1.92 1.94 2.00 1.97 1.94 1.92 1.86 1.85 1.87 1.93 1.97 2.00 2.00 1.98 1.91
2.52 2.49 2.48 2.38 2.37 2.39 2.57 2.65 2.71 2.82 2.70 2.55 2.47 2.39 2.16 1.87 1.86 1.84 1.79 1.74 1.75 1.78 1.78 1.80 1.79 1.76 1.74 1.80 1.88 1.91 1.94 1.97 1.93 1.89 1.89 1.91 1.89 1.94 1.94 1.92 1.87 1.80 1.78
2.34 2.33 2.22 2.12 2.16 2.25 2.37 2.47 2.57 2.67 2.63 2.58 2.46 2.36 2.25 1.95 1.87 1.80 1.74 1.69 1.68 1.69 1.70 1.77 1.78 1.76 1.74 1.80 1.85 1.86 1.85 1.81 1.79 1.79 1.82 1.81 1.81 1.83 1.83 1.82 1.82 1.81 1.79
2.44 2.36 2.31 2.27 2.20 2.29 2.29 2.35 2.52 2.53 2.48 2.49 2.42 2.24 2.12 2.09 1.99 1.88 1.78 1.69 1.65 1.65 1.65 1.67 1.67 1.65 1.63 1.65 1.69 1.70 1.66 1.62 1.59 1.58 1.67 1.72 1.73 1.76 1.76 1.76 1.80 1.85 1.84
2.47 2.49 2.36 2.23 2.15 2.12 2.18 2.34 2.43 2.36 2.23 2.20 2.14 2.01 1.99 2.02 1.97 1.91 1.80 1.72 1.69 1.64 1.57 1.53 1.44 1.38 1.37 1.42 1.47 1.47 1.43 1.42 1.42 1.48 1.55 1.63 1.65 1.66 1.68 1.73 1.79 1.83 1.82
2.30 2.40 2.41 2.31 2.17 2.07 2.04 2.08 2.06 2.02 1.94 1.89 1.88 1.88 1.89 1.85 1.80 1.74 1.70 1.68 1.61 1.51 1.41 1.38 1.33 1.30 1.28 1.28 1.28 1.29 1.39 1.43 1.42 1.40 1.40 1.48 1.53 1.58 1.57 1.60 1.67 1.73 1.72
2.11 2.16 2.16 2.10 1.98 1.87 1.87 1.87 1.82 1.75 1.71 1.64 1.60 1.58 1.55 1.55 1.53 1.46 1.40 1.43 1.45 1.44 1.37 1.32 1.31 1.29 1.27 1.24 1.25 1.32 1.32 1.24 1.27 1.32 1.23 1.23 1.36 1.44 1.41 1.36 1.35 1.46 1.50